SATELIOT_3

Last updated on Mon Sep 16 2024 00:02:04 GMT+0000 (Coordinated Universal Time)

1 60552U 24149CN 24259.51485620 .00007582 00000+0 72458-3 0 9991 2 60552 97.7458 334.5571 0009622 69.4029 290.8222 14.93501430 4422
UTC large
Height (km)
Speed (km/s)
/
Latitude / Longitude
Inclination (degrees)
Orbital Period (minutes)
Azimuth
Elevation
Range (km)
Doppler Factor

Next 0 passes for location: London (51.5072 / 0.1276)

Sorry there are no passes over London.